Satellite: ISS
Catalog number: 25544
Epoch time:      10098.86896992
Element set:     935
Inclination:      051.6458 deg
RA of node:       226.4374 deg
Eccentricity:    0.0005551
Arg of perigee:   153.6324 deg
Mean anomaly:     356.1426 deg
Mean motion:   15.74509252 rev/day
Decay rate:     2.3253e-04 rev/day^2
Epoch rev:           65255
Checksum:              321

Satellite: CO-58
Catalog number: 28895
Epoch time:      10098.68829750
Element set:     553
Inclination:      098.0231 deg
RA of node:       345.4309 deg
Eccentricity:    0.0018732
Arg of perigee:   140.6093 deg
Mean anomaly:     219.6444 deg
Mean motion:   14.59872629 rev/day
Decay rate:       4.05e-06 rev/day^2
Epoch rev:           23684
Checksum:              341

Satellite: FALCON
Catalog number: 30776
Epoch time:      10097.43311821
Element set:    0806
Inclination:      035.4326 deg
RA of node:       113.8286 deg
Eccentricity:    0.0001649
Arg of perigee:   314.8561 deg
Mean anomaly:     045.2022 deg
Mean motion:   15.03572631 rev/day
Decay rate:      1.206e-05 rev/day^2
Epoch rev:           16940
Checksum:              262

Satellite: MAST
Catalog number: 31126
Epoch time:      10098.62861755
Element set:     836
Inclination:      097.9451 deg
RA of node:       144.2124 deg
Eccentricity:    0.0095757
Arg of perigee:   082.2065 deg
Mean anomaly:     278.9999 deg
Mean motion:   14.53572701 rev/day
Decay rate:       2.75e-06 rev/day^2
Epoch rev:           15795
Checksum:              335

Satellite: CAPE1
Catalog number: 31130
Epoch time:      10097.09693798
Element set:    0856
Inclination:      097.9508 deg
RA of node:       140.3112 deg
Eccentricity:    0.0104192
Arg of perigee:   094.8648 deg
Mean anomaly:     266.4494 deg
Mean motion:   14.52157857 rev/day
Decay rate:       2.80e-06 rev/day^2
Epoch rev:           15734
Checksum:              321

Satellite: COMPASS
Catalog number: 32787
Epoch time:      10098.68645918
Element set:     640
Inclination:      097.8986 deg
RA of node:       164.3825 deg
Eccentricity:    0.0016272
Arg of perigee:   148.2954 deg
Mean anomaly:     211.9239 deg
Mean motion:   14.81822414 rev/day
Decay rate:      1.247e-05 rev/day^2
Epoch rev:           10520
Checksum:              321

Satellite: AAUSAT2
Catalog number: 32788
Epoch time:      10097.75087755
Element set:    0634
Inclination:      097.8999 deg
RA of node:       163.5730 deg
Eccentricity:    0.0015868
Arg of perigee:   152.0781 deg
Mean anomaly:     208.1288 deg
Mean motion:   14.81958798 rev/day
Decay rate:      1.159e-05 rev/day^2
Epoch rev:           10507
Checksum:              358

Satellite: DO-64
Catalog number: 32789
Epoch time:      10097.76575007
Element set:    0652
Inclination:      097.9060 deg
RA of node:       163.9838 deg
Eccentricity:    0.0016249
Arg of perigee:   150.2485 deg
Mean anomaly:     209.9656 deg
Mean motion:   14.82062823 rev/day
Decay rate:      1.873e-05 rev/day^2
Epoch rev:           10507
Checksum:              336

Satellite: CO-66
Catalog number: 32791
Epoch time:      10097.21271582
Element set:    0631
Inclination:      097.8996 deg
RA of node:       162.9503 deg
Eccentricity:    0.0016135
Arg of perigee:   150.8574 deg
Mean anomaly:     209.3601 deg
Mean motion:   14.81613500 rev/day
Decay rate:       7.49e-06 rev/day^2
Epoch rev:           10494
Checksum:              307

Satellite: RS-30
Catalog number: 32953
Epoch time:      10098.42540834
Element set:     585
Inclination:      082.4979 deg
RA of node:       073.0549 deg
Eccentricity:    0.0017274
Arg of perigee:   255.1365 deg
Mean anomaly:     104.7800 deg
Mean motion:   12.43004713 rev/day
Decay rate:        1.0e-07 rev/day^2
Epoch rev:            8507
Checksum:              283

Satellite: TACSAT-3
Catalog number: 35001
Epoch time:      10097.94859470
Element set:    0258
Inclination:      040.4562 deg
RA of node:       275.8282 deg
Eccentricity:    0.0020879
Arg of perigee:   201.6136 deg
Mean anomaly:     158.3799 deg
Mean motion:   15.41085570 rev/day
Decay rate:     1.2344e-04 rev/day^2
Epoch rev:           04979
Checksum:              319

Satellite: PHARMSAT
Catalog number: 35002
Epoch time:      10097.86292862
Element set:     244
Inclination:      040.4697 deg
RA of node:       274.6113 deg
Eccentricity:    0.0024214
Arg of perigee:   205.7662 deg
Mean anomaly:     154.1953 deg
Mean motion:   15.41674318 rev/day
Decay rate:     1.0942e-04 rev/day^2
Epoch rev:            4979
Checksum:              295

Satellite: HAWKSAT1
Catalog number: 35003
Epoch time:      10097.83416732
Element set:     258
Inclination:      040.4577 deg
RA of node:       271.4312 deg
Eccentricity:    0.0021115
Arg of perigee:   217.2077 deg
Mean anomaly:     142.7286 deg
Mean motion:   15.44059560 rev/day
Decay rate:     2.2159e-04 rev/day^2
Epoch rev:            4983
Checksum:              280

Satellite: CP6
Catalog number: 35004
Epoch time:      10097.86381044
Element set:    0256
Inclination:      040.4573 deg
RA of node:       270.7824 deg
Eccentricity:    0.0020380
Arg of perigee:   219.4848 deg
Mean anomaly:     140.4491 deg
Mean motion:   15.44642324 rev/day
Decay rate:     2.6351e-04 rev/day^2
Epoch rev:           04983
Checksum:              290

